This is the latest recevied weather packets stored in our database for station/object N5KJT. If no packets are shown the sender has not sent any weather packets the latest 10 day(s).
| Time | Temp. | Humidity | Pressure | Rain* | Wind** | Luminosity | Snow |
|---|---|---|---|---|---|---|---|
| 1787951716 | 32.78° C | 24% | 1025.9 hPa | 0 mm | - | 385 W/m² | - |
| 1787951416 | 32.78° C | 24% | 1025.9 hPa | 0 mm | - | 346 W/m² | - |
| 1787951116 | 32.78° C | 23% | 1026 hPa | 0 mm | - | 275 W/m² | - |
| 1787950816 | 33.33° C | 23% | 1026.1 hPa | 0 mm | - | 233 W/m² | - |
| 1787950516 | 33.89° C | 23% | 1026.2 hPa | 0 mm | - | 192 W/m² | - |
| 1787950216 | 33.89° C | 22% | 1026.3 hPa | 0 mm | - | 173 W/m² | - |
| 1787949916 | 34.44° C | 23% | 1026.3 hPa | 0 mm | - | 1068 W/m² | - |
| 1787949616 | 34.44° C | 23% | 1026.4 hPa | 0 mm | - | 1234 W/m² | - |
| 1787949316 | 34.44° C | 23% | 1026.3 hPa | 0 mm | - | 1214 W/m² | - |
| 1787949016 | 33.89° C | 24% | 1026.3 hPa | 0 mm | - | 1216 W/m² | - |
| 1787948716 | 33.89° C | 24% | 1026.3 hPa | 0 mm | - | 1202 W/m² | - |
| 1787948416 | 33.33° C | 25% | 1026.4 hPa | 0 mm | - | 1206 W/m² | - |
| 1787948116 | 33.33° C | 25% | 1026.4 hPa | 0 mm | - | 1200 W/m² | - |
| 1787947816 | 33.33° C | 25% | 1026.5 hPa | 0 mm | - | 1208 W/m² | - |
| 1787947516 | 33.33° C | 26% | 1026.5 hPa | 0 mm | - | 1227 W/m² | - |
| 1787947216 | 33.33° C | 25% | 1026.4 hPa | 0 mm | - | 1287 W/m² | - |
| 1787946916 | 33.33° C | 25% | 1026.8 hPa | 0 mm | - | 1315 W/m² | - |
| 1787946616 | 33.33° C | 25% | 1026.9 hPa | 0 mm | - | 1319 W/m² | - |
| 1787946316 | 33.33° C | 25% | 1027 hPa | 0 mm | - | 1369 W/m² | - |
| 1787946016 | 33.33° C | 26% | 1027.1 hPa | 0 mm | - | 1367 W/m² | - |
| 1787945716 | 32.78° C | 27% | 1027.1 hPa | 0 mm | - | 1339 W/m² | - |
| 1787945416 | 32.78° C | 27% | 1027.2 hPa | 0 mm | - | 1316 W/m² | - |
| 1787945116 | 32.78° C | 28% | 1027.3 hPa | 0 mm | - | 1284 W/m² | - |
| 1787944815 | 32.78° C | 28% | 1027.4 hPa | 0 mm | - | 1243 W/m² | - |
| 1787944516 | 32.22° C | 29% | 1027.5 hPa | 0 mm | - | 1217 W/m² | - |
* Rain latest hour (hover to see other rain measurements)
** Current wind speed in m/s (hover to see current wind gust speed)